Time,TemperatureF,DewpointF,PressureIn,WindDirection,WindDirectionDegrees,WindSpeedMPH,WindSpeedGustMPH,Humidity,HourlyPrecipIn,Conditions,Clouds,dailyrainin,SoftwareType,DateUTC
2013-08-04 01:02:00,61.0,60.0,30.06,NNE,28,0.0,0.0,97,0.00,,,-99.99,,2013-08-04 05:02:00,
2013-08-04 01:12:00,61.0,60.0,30.06,NNE,28,0.0,0.0,97,0.00,,,-99.99,,2013-08-04 05:12:00,
2013-08-04 01:22:00,61.0,60.0,30.06,NNE,28,0.0,0.0,97,0.00,,,-99.99,,2013-08-04 05:22:00,
2013-08-04 01:32:00,61.0,60.0,30.06,NNE,28,0.0,0.0,97,0.00,,,-99.99,,2013-08-04 05:32:00,
2013-08-04 01:42:00,61.0,60.0,30.06,NNE,28,0.0,0.0,97,0.00,,,-99.99,,2013-08-04 05:42:00,
2013-08-04 01:52:00,61.0,60.0,30.06,NNE,28,0.0,0.0,97,0.00,,,-99.99,,2013-08-04 05:52:00,
2013-08-04 02:02:00,61.0,60.0,30.06,NNE,28,0.0,0.0,97,0.00,,,-99.99,,2013-08-04 06:02:00,
2013-08-04 02:12:00,61.0,60.0,30.06,NNE,28,0.0,0.0,97,0.00,,,-99.99,,2013-08-04 06:12:00,
2013-08-04 02:22:00,61.0,60.0,30.06,NNE,28,0.0,0.0,97,0.00,,,-99.99,,2013-08-04 06:22:00,
2013-08-04 02:32:00,61.0,60.0,30.05,NNE,28,0.0,0.0,97,0.00,,,-99.99,,2013-08-04 06:32:00,
2013-08-04 02:43:00,61.0,60.0,30.04,NNE,28,0.0,0.0,97,0.00,,,-99.99,,2013-08-04 06:43:00,
2013-08-04 02:52:00,61.0,60.0,30.04,NNE,28,0.0,0.0,97,0.00,,,-99.99,,2013-08-04 06:52:00,
2013-08-04 03:02:00,61.0,60.0,30.04,NNE,28,0.0,0.0,97,0.00,,,-99.99,,2013-08-04 07:02:00,
2013-08-04 03:12:00,61.0,60.0,30.03,NNE,28,0.0,0.0,97,0.00,,,-99.99,,2013-08-04 07:12:00,
2013-08-04 03:22:00,61.0,60.0,30.03,NNE,28,0.0,0.0,97,0.00,,,-99.99,,2013-08-04 07:22:00,
2013-08-04 03:33:00,61.0,60.0,30.03,NNE,28,0.0,0.0,97,0.00,,,-99.99,,2013-08-04 07:33:00,
2013-08-04 03:43:00,62.0,61.0,30.02,NNE,28,0.0,0.0,96,0.00,,,-99.99,,2013-08-04 07:43:00,
2013-08-04 03:53:00,62.0,61.0,30.02,NNE,28,0.0,0.0,96,0.00,,,-99.99,,2013-08-04 07:53:00,
2013-08-04 04:02:00,62.0,61.0,30.02,NNE,28,0.0,0.0,96,0.00,,,-99.99,,2013-08-04 08:02:00,
2013-08-04 04:12:00,62.0,61.0,30.02,NNE,28,0.0,0.0,96,0.00,,,-99.99,,2013-08-04 08:12:00,
2013-08-04 04:23:00,62.0,61.0,30.02,NNE,28,0.0,0.0,96,0.00,,,-99.99,,2013-08-04 08:23:00,
2013-08-04 04:33:00,62.0,61.0,30.03,NNE,28,0.0,0.0,96,0.00,,,-99.99,,2013-08-04 08:33:00,
2013-08-04 04:43:00,62.0,61.0,30.03,NNE,28,0.0,0.0,96,0.00,,,-99.99,,2013-08-04 08:43:00,
2013-08-04 04:53:00,62.0,61.0,30.03,NNE,28,0.0,0.0,96,0.00,,,-99.99,,2013-08-04 08:53:00,
2013-08-04 05:02:00,62.0,61.0,30.03,NNE,28,0.0,0.0,96,0.00,,,-99.99,,2013-08-04 09:02:00,
2013-08-04 05:12:00,61.0,60.0,30.03,NNE,28,0.0,0.0,96,0.00,,,-99.99,,2013-08-04 09:12:00,
2013-08-04 05:22:00,61.0,60.0,30.03,NNE,28,0.0,0.0,96,0.00,,,-99.99,,2013-08-04 09:22:00,
2013-08-04 05:32:00,61.0,60.0,30.03,NNE,28,0.0,0.0,96,0.00,,,-99.99,,2013-08-04 09:32:00,
2013-08-04 05:43:00,61.0,60.0,30.03,NNE,28,0.0,0.0,96,0.00,,,-99.99,,2013-08-04 09:43:00,
2013-08-04 05:52:00,61.0,60.0,30.03,NNE,28,0.0,0.0,96,0.00,,,-99.99,,2013-08-04 09:52:00,
2013-08-04 06:02:00,61.0,60.0,30.03,NNE,28,0.0,0.0,96,0.00,,,-99.99,,2013-08-04 10:02:00,
2013-08-04 06:12:00,61.0,60.0,30.03,NNE,28,0.0,0.0,96,0.00,,,-99.99,,2013-08-04 10:12:00,
2013-08-04 06:22:00,61.0,60.0,30.03,NNE,28,0.0,0.0,96,0.00,,,-99.99,,2013-08-04 10:22:00,
2013-08-04 07:02:00,61.0,60.0,30.03,NNE,28,0.0,0.0,96,0.00,,,-99.99,,2013-08-04 11:02:00,
2013-08-04 07:12:00,60.0,59.0,30.04,NNE,28,0.0,0.0,96,0.00,,,-99.99,,2013-08-04 11:12:00,
2013-08-04 07:22:00,60.0,59.0,30.04,NNE,28,0.0,0.0,96,0.00,,,-99.99,,2013-08-04 11:22:00,
2013-08-04 07:32:00,60.0,59.0,30.03,NNE,28,0.0,0.0,96,0.00,,,-99.99,,2013-08-04 11:32:00,
2013-08-04 07:42:00,60.0,59.0,30.04,NNE,28,0.0,0.0,96,0.00,,,-99.99,,2013-08-04 11:42:00,
2013-08-04 07:53:00,60.0,59.0,30.04,NNE,28,0.0,0.0,96,0.00,,,-99.99,,2013-08-04 11:53:00,
2013-08-04 08:02:00,60.0,59.0,30.05,NNE,28,0.0,0.0,95,0.00,,,-99.99,,2013-08-04 12:02:00,
2013-08-04 08:13:00,61.0,59.0,30.05,NNE,28,0.0,0.0,94,0.00,,,-99.99,,2013-08-04 12:13:00,
2013-08-04 08:22:00,61.0,59.0,30.05,NNE,28,0.0,0.0,94,0.00,,,-99.99,,2013-08-04 12:22:00,
2013-08-04 08:33:00,61.0,59.0,30.05,NNE,28,0.0,0.0,94,0.00,,,-99.99,,2013-08-04 12:33:00,
2013-08-04 08:43:00,61.0,59.0,30.05,NNE,28,0.0,0.0,94,0.00,,,-99.99,,2013-08-04 12:43:00,
2013-08-04 08:53:00,61.0,59.0,30.05,NNE,28,0.0,0.0,94,0.00,,,-99.99,,2013-08-04 12:53:00,
2013-08-04 09:02:00,61.0,59.0,30.05,NNE,28,0.0,0.0,93,0.00,,,-99.99,,2013-08-04 13:02:00,
2013-08-04 09:12:00,61.0,59.0,30.05,NNE,28,0.0,0.0,93,0.00,,,-99.99,,2013-08-04 13:12:00,
2013-08-04 09:22:00,61.0,59.0,30.05,NNE,28,0.0,0.0,93,0.00,,,-99.99,,2013-08-04 13:22:00,
2013-08-04 09:32:00,61.0,59.0,30.06,NNE,28,0.0,0.0,93,0.00,,,-99.99,,2013-08-04 13:32:00,
2013-08-04 09:43:00,61.0,59.0,30.06,NNE,28,0.0,0.0,93,0.00,,,-99.99,,2013-08-04 13:43:00,
2013-08-04 09:52:00,62.0,60.0,30.06,NNE,28,0.0,0.0,93,0.00,,,-99.99,,2013-08-04 13:52:00,
2013-08-04 10:02:00,62.0,60.0,30.06,NNE,28,0.0,0.0,93,0.00,,,-99.99,,2013-08-04 14:02:00,
2013-08-04 10:12:00,62.0,60.0,30.06,NNE,28,0.0,0.0,92,0.00,,,-99.99,,2013-08-04 14:12:00,
2013-08-04 10:22:00,62.0,61.0,30.05,NNE,28,0.0,0.0,95,0.00,,,-99.99,,2013-08-04 14:22:00,
2013-08-04 10:32:00,62.0,61.0,30.05,NNE,28,0.0,0.0,95,0.00,,,-99.99,,2013-08-04 14:32:00,
2013-08-04 10:43:00,62.0,61.0,30.05,NNE,28,0.0,0.0,95,0.00,,,-99.99,,2013-08-04 14:43:00,
2013-08-04 10:53:00,63.0,62.0,30.05,NNE,28,0.0,0.0,95,0.00,,,-99.99,,2013-08-04 14:53:00,
2013-08-04 11:02:00,63.0,62.0,30.05,NNE,28,0.0,0.0,95,0.00,,,-99.99,,2013-08-04 15:02:00,
2013-08-04 11:12:00,65.0,64.0,30.06,NNE,28,0.0,0.0,95,0.00,,,-99.99,,2013-08-04 15:12:00,
2013-08-04 11:22:00,65.0,63.0,30.05,NNE,28,0.0,0.0,94,0.00,,,-99.99,,2013-08-04 15:22:00,
2013-08-04 11:32:00,65.0,63.0,30.05,NNE,28,0.0,0.0,94,0.00,,,-99.99,,2013-08-04 15:32:00,
2013-08-04 11:43:00,67.0,64.0,30.07,NNE,28,0.0,0.0,91,0.00,,,-99.99,,2013-08-04 15:43:00,
2013-08-04 11:53:00,68.0,66.0,30.07,NNE,28,0.0,0.0,92,0.00,,,-99.99,,2013-08-04 15:53:00,
2013-08-04 12:02:00,68.0,65.0,30.07,NNE,28,0.0,0.0,89,0.00,,,-99.99,,2013-08-04 16:02:00,
2013-08-04 12:12:00,68.0,65.0,30.07,NNE,28,0.0,0.0,89,0.00,,,-99.99,,2013-08-04 16:12:00,
2013-08-04 12:22:00,68.0,65.0,30.07,NNE,28,0.0,0.0,89,0.00,,,-99.99,,2013-08-04 16:22:00,
2013-08-04 12:32:00,68.0,65.0,30.07,NNE,28,0.0,0.0,89,0.00,,,-99.99,,2013-08-04 16:32:00,
2013-08-04 12:42:00,69.0,65.0,30.08,NNE,28,0.0,0.0,87,0.00,,,-99.99,,2013-08-04 16:42:00,
2013-08-04 12:53:00,69.0,65.0,30.08,NNE,28,0.0,0.0,86,0.00,,,-99.99,,2013-08-04 16:53:00,
2013-08-04 13:02:00,69.0,65.0,30.08,NNE,28,0.0,0.0,86,0.00,,,-99.99,,2013-08-04 17:02:00,
2013-08-04 13:12:00,69.0,65.0,30.08,NNE,28,0.0,0.0,86,0.00,,,-99.99,,2013-08-04 17:12:00,
2013-08-04 13:22:00,69.0,65.0,30.08,NNE,28,0.0,0.0,86,0.00,,,-99.99,,2013-08-04 17:22:00,
2013-08-04 13:32:00,69.0,65.0,30.08,NNE,28,0.0,0.0,86,0.00,,,-99.99,,2013-08-04 17:32:00,
2013-08-04 13:43:00,71.0,64.0,30.07,NNE,28,0.0,0.0,79,0.00,,,-99.99,,2013-08-04 17:43:00,
2013-08-04 13:53:00,71.0,64.0,30.07,NNE,28,0.0,0.0,78,0.00,,,-99.99,,2013-08-04 17:53:00,
2013-08-04 14:02:00,71.0,63.0,30.07,NNE,28,0.0,0.0,77,0.00,,,-99.99,,2013-08-04 18:02:00,
2013-08-04 14:12:00,71.0,63.0,30.07,NNE,28,0.0,0.0,77,0.00,,,-99.99,,2013-08-04 18:12:00,
2013-08-04 14:23:00,72.0,63.0,30.07,NNE,28,0.0,0.0,73,0.00,,,-99.99,,2013-08-04 18:23:00,
2013-08-04 14:33:00,72.0,63.0,30.07,NNE,28,0.0,0.0,73,0.00,,,-99.99,,2013-08-04 18:33:00,
2013-08-04 14:43:00,72.0,63.0,30.07,NNE,28,0.0,0.0,73,0.00,,,-99.99,,2013-08-04 18:43:00,
2013-08-04 14:52:00,72.0,63.0,30.08,NNE,28,0.0,0.0,74,0.00,,,-99.99,,2013-08-04 18:52:00,
2013-08-04 15:02:00,71.0,62.0,30.08,NNE,28,0.0,0.0,72,0.00,,,-99.99,,2013-08-04 19:02:00,
2013-08-04 15:12:00,72.0,63.0,30.08,NNE,28,0.0,0.0,74,0.00,,,-99.99,,2013-08-04 19:12:00,
2013-08-04 15:22:00,72.0,62.0,30.08,NNE,28,0.0,0.0,72,0.00,,,-99.99,,2013-08-04 19:22:00,
2013-08-04 15:33:00,72.0,62.0,30.08,NNE,28,0.0,0.0,72,0.00,,,-99.99,,2013-08-04 19:33:00,
2013-08-04 15:44:00,72.0,62.0,30.08,NNE,28,0.0,0.0,71,0.00,,,-99.99,,2013-08-04 19:44:00,
2013-08-04 15:52:00,72.0,62.0,30.08,NNE,28,0.0,0.0,72,0.00,,,-99.99,,2013-08-04 19:52:00,
2013-08-04 16:02:00,71.0,62.0,30.08,NNE,28,0.0,0.0,74,0.00,,,-99.99,,2013-08-04 20:02:00,
2013-08-04 16:12:00,71.0,62.0,30.08,NNE,28,0.0,0.0,74,0.00,,,-99.99,,2013-08-04 20:12:00,
2013-08-04 16:22:00,71.0,63.0,30.08,NNE,28,0.0,0.0,76,0.00,,,-99.99,,2013-08-04 20:22:00,
2013-08-04 16:32:00,71.0,63.0,30.08,NNE,28,0.0,0.0,76,0.00,,,-99.99,,2013-08-04 20:32:00,
2013-08-04 16:43:00,71.0,63.0,30.08,NNE,28,0.0,0.0,76,0.00,,,-99.99,,2013-08-04 20:43:00,
2013-08-04 16:53:00,70.0,61.0,30.07,NNE,28,0.0,0.0,72,0.00,,,-99.99,,2013-08-04 20:53:00,
2013-08-04 17:02:00,70.0,61.0,30.07,NNE,28,0.0,0.0,72,0.00,,,-99.99,,2013-08-04 21:02:00,
2013-08-04 17:12:00,70.0,61.0,30.07,NNE,28,0.0,0.0,72,0.00,,,-99.99,,2013-08-04 21:12:00,
2013-08-04 17:22:00,70.0,61.0,30.07,NNE,28,0.0,0.0,72,0.00,,,-99.99,,2013-08-04 21:22:00,
2013-08-04 17:32:00,70.0,61.0,30.07,NNE,28,0.0,0.0,72,0.00,,,-99.99,,2013-08-04 21:32:00,
2013-08-04 17:43:00,68.0,60.0,30.07,NNE,28,0.0,0.0,75,0.00,,,-99.99,,2013-08-04 21:43:00,
2013-08-04 17:53:00,68.0,60.0,30.07,NNE,28,0.0,0.0,75,0.00,,,-99.99,,2013-08-04 21:53:00,
2013-08-04 18:02:00,67.0,60.0,30.07,NNE,28,0.0,0.0,77,0.00,,,-99.99,,2013-08-04 22:02:00,
2013-08-04 18:12:00,67.0,60.0,30.07,NNE,28,0.0,0.0,77,0.00,,,-99.99,,2013-08-04 22:12:00,
2013-08-04 18:22:00,67.0,60.0,30.07,NNE,28,0.0,0.0,77,0.00,,,-99.99,,2013-08-04 22:22:00,
2013-08-04 18:32:00,64.0,58.0,30.06,NNE,28,0.0,0.0,82,0.00,,,-99.99,,2013-08-04 22:32:00,
2013-08-04 18:43:00,64.0,58.0,30.06,NNE,28,0.0,0.0,82,0.00,,,-99.99,,2013-08-04 22:43:00,
2013-08-04 18:53:00,64.0,59.0,30.06,NNE,28,0.0,0.0,84,0.00,,,-99.99,,2013-08-04 22:53:00,
2013-08-04 19:02:00,63.0,58.0,30.05,NNE,28,0.0,0.0,84,0.00,,,-99.99,,2013-08-04 23:02:00,
2013-08-04 19:12:00,63.0,58.0,30.06,NNE,28,0.0,0.0,85,0.00,,,-99.99,,2013-08-04 23:12:00,
2013-08-04 19:22:00,62.0,58.0,30.06,NNE,28,0.0,0.0,87,0.00,,,-99.99,,2013-08-04 23:22:00,
2013-08-04 19:32:00,62.0,58.0,30.06,NNE,28,0.0,0.0,87,0.00,,,-99.99,,2013-08-04 23:32:00,
2013-08-04 19:43:00,62.0,58.0,30.08,NNE,28,0.0,0.0,87,0.00,,,-99.99,,2013-08-04 23:43:00,
2013-08-04 19:52:00,61.0,58.0,30.08,NNE,28,0.0,0.0,89,0.00,,,-99.99,,2013-08-04 23:52:00,
2013-08-04 20:02:00,61.0,58.0,30.09,NNE,28,0.0,0.0,90,0.00,,,-99.99,,2013-08-05 00:02:00,
2013-08-04 20:12:00,61.0,58.0,30.09,NNE,28,0.0,0.0,90,0.00,,,-99.99,,2013-08-05 00:12:00,
2013-08-04 20:22:00,61.0,59.0,30.09,NNE,28,0.0,0.0,94,0.00,,,-99.99,,2013-08-05 00:22:00,
2013-08-04 20:32:00,60.0,58.0,30.09,NNE,28,0.0,0.0,94,0.00,,,-99.99,,2013-08-05 00:32:00,
2013-08-04 20:42:00,60.0,59.0,30.09,NNE,28,0.0,0.0,95,0.00,,,-99.99,,2013-08-05 00:42:00,
2013-08-04 20:52:00,60.0,59.0,30.09,NNE,28,0.0,0.0,95,0.00,,,-99.99,,2013-08-05 00:52:00,
2013-08-04 21:02:00,59.0,58.0,30.09,NNE,28,0.0,0.0,96,0.00,,,-99.99,,2013-08-05 01:02:00,
2013-08-04 21:12:00,59.0,58.0,30.09,NNE,28,0.0,0.0,96,0.00,,,-99.99,,2013-08-05 01:12:00,
2013-08-04 21:22:00,59.0,58.0,30.09,NNE,28,0.0,0.0,96,0.00,,,-99.99,,2013-08-05 01:22:00,
2013-08-04 21:33:00,59.0,58.0,30.09,NNE,28,0.0,0.0,96,0.00,,,-99.99,,2013-08-05 01:33:00,
2013-08-04 21:42:00,59.0,58.0,30.09,NNE,28,0.0,0.0,96,0.00,,,-99.99,,2013-08-05 01:42:00,
2013-08-04 21:52:00,59.0,58.0,30.09,NNE,28,0.0,0.0,96,0.00,,,-99.99,,2013-08-05 01:52:00,
2013-08-04 22:02:00,57.0,56.0,30.11,NNE,28,0.0,0.0,98,0.00,,,-99.99,,2013-08-05 02:02:00,
2013-08-04 22:12:00,57.0,56.0,30.11,NNE,28,0.0,0.0,98,0.00,,,-99.99,,2013-08-05 02:12:00,
2013-08-04 22:22:00,57.0,56.0,30.11,NNE,28,0.0,0.0,98,0.00,,,-99.99,,2013-08-05 02:22:00,
2013-08-04 22:33:00,57.0,56.0,30.11,NNE,28,0.0,0.0,98,0.00,,,-99.99,,2013-08-05 02:33:00,
2013-08-04 22:43:00,57.0,56.0,30.11,NNE,28,0.0,0.0,98,0.00,,,-99.99,,2013-08-05 02:43:00,
2013-08-04 22:53:00,57.0,56.0,30.12,NNE,28,0.0,0.0,98,0.00,,,-99.99,,2013-08-05 02:53:00,
2013-08-04 23:02:00,57.0,56.0,30.12,NNE,28,0.0,0.0,98,0.00,,,-99.99,,2013-08-05 03:02:00,
2013-08-04 23:12:00,57.0,56.0,30.12,NNE,28,0.0,0.0,98,0.00,,,-99.99,,2013-08-05 03:12:00,
2013-08-04 23:22:00,57.0,56.0,30.12,NNE,28,0.0,0.0,98,0.00,,,-99.99,,2013-08-05 03:22:00,
2013-08-04 23:32:00,57.0,56.0,30.11,NNE,28,0.0,0.0,98,0.00,,,-99.99,,2013-08-05 03:32:00,
2013-08-04 23:42:00,56.0,55.0,30.12,NNE,28,0.0,0.0,98,0.00,,,-99.99,,2013-08-05 03:42:00,
2013-08-04 23:53:00,56.0,55.0,30.11,NNE,28,0.0,0.0,98,0.00,,,-99.99,,2013-08-05 03:53:00,